GFSMA_prec_pwat_123.txt.gz
Precipitable_Water
1.60 1.63 1.62 1.65 1.67 1.63 1.55 1.51 1.50 1.46 1.44 1.46 1.45 1.38 1.31 1.29 1.26 1.26 1.25 1.21 1.20 1.24 1.28 1.31 1.34 1.41 1.40 1.37 1.45 1.51 1.56 1.52 1.53 1.56 1.59 1.63 1.66 1.69 1.63 1.55 1.35 1.28 1.18
1.62 1.68 1.65 1.63 1.63 1.68 1.67 1.62 1.55 1.53 1.48 1.48 1.45 1.44 1.37 1.36 1.36 1.32 1.29 1.28 1.24 1.22 1.24 1.29 1.34 1.42 1.46 1.41 1.43 1.49 1.51 1.51 1.48 1.50 1.52 1.55 1.68 1.71 1.66 1.64 1.43 1.31 1.24
1.44 1.60 1.67 1.67 1.67 1.68 1.68 1.66 1.62 1.63 1.57 1.54 1.46 1.48 1.48 1.39 1.37 1.36 1.35 1.31 1.29 1.27 1.25 1.25 1.28 1.32 1.42 1.45 1.43 1.45 1.47 1.44 1.44 1.44 1.43 1.47 1.60 1.74 1.67 1.66 1.56 1.38 1.26
1.25 1.27 1.36 1.54 1.71 1.75 1.75 1.67 1.61 1.54 1.52 1.54 1.48 1.50 1.51 1.50 1.44 1.34 1.40 1.41 1.38 1.30 1.27 1.28 1.30 1.31 1.32 1.33 1.37 1.40 1.42 1.42 1.43 1.42 1.39 1.38 1.48 1.66 1.71 1.67 1.62 1.47 1.34
1.03 1.05 1.10 1.25 1.35 1.53 1.65 1.72 1.71 1.64 1.56 1.56 1.57 1.61 1.63 1.60 1.55 1.56 1.30 1.44 1.48 1.43 1.32 1.30 1.29 1.31 1.33 1.35 1.36 1.37 1.36 1.30 1.34 1.38 1.37 1.34 1.41 1.58 1.65 1.67 1.65 1.56 1.41
0.84 0.86 0.90 0.93 1.04 1.16 1.37 1.57 1.63 1.69 1.64 1.67 1.65 1.63 1.71 1.66 1.64 1.49 1.29 1.46 1.42 1.49 1.46 1.38 1.43 1.37 1.34 1.32 1.33 1.39 1.38 1.33 1.25 1.27 1.35 1.34 1.33 1.48 1.58 1.63 1.69 1.61 1.51
0.71 0.72 0.70 0.72 0.78 0.86 1.04 1.19 1.30 1.44 1.52 1.63 1.55 1.47 1.37 1.51 1.47 1.45 1.40 1.38 1.42 1.44 1.44 1.36 1.40 1.42 1.32 1.28 1.26 1.29 1.34 1.34 1.27 1.24 1.21 1.27 1.28 1.35 1.56 1.59 1.61 1.63 1.57
0.70 0.70 0.69 0.67 0.67 0.67 0.70 0.76 0.90 1.05 1.29 1.46 1.35 1.30 1.22 1.32 1.41 1.34 1.45 1.36 1.33 1.36 1.32 1.32 1.32 1.33 1.30 1.36 1.29 1.28 1.27 1.24 1.23 1.21 1.22 1.20 1.20 1.30 1.49 1.53 1.62 1.67 1.62
0.70 0.69 0.67 0.67 0.68 0.67 0.65 0.68 0.71 0.72 0.77 1.08 1.21 1.04 0.91 0.86 1.00 1.14 1.18 1.23 1.32 1.31 1.25 1.21 1.24 1.24 1.25 1.27 1.30 1.23 1.23 1.19 1.20 1.15 1.16 1.18 1.15 1.25 1.41 1.48 1.57 1.64 1.64
0.68 0.66 0.63 0.61 0.64 0.67 0.67 0.69 0.73 0.71 0.70 0.66 0.94 1.14 1.07 1.00 0.83 0.79 1.01 1.09 1.23 1.20 1.18 1.16 1.19 1.17 1.17 1.20 1.28 1.25 1.22 1.18 1.13 1.14 1.13 1.12 1.16 1.19 1.31 1.41 1.53 1.59 1.61
0.70 0.69 0.61 0.58 0.58 0.63 0.66 0.67 0.70 0.72 0.73 0.68 0.67 0.80 0.93 0.94 0.92 0.84 0.78 0.86 0.99 1.05 1.12 1.18 1.15 1.11 1.13 1.18 1.21 1.26 1.22 1.23 1.19 1.12 1.14 1.14 1.18 1.17 1.23 1.36 1.47 1.53 1.52
0.62 0.66 0.66 0.58 0.60 0.59 0.62 0.67 0.67 0.70 0.72 0.74 0.71 0.68 0.68 0.70 0.67 0.66 0.64 0.77 0.76 0.91 0.96 1.02 1.04 1.07 1.10 1.14 1.18 1.20 1.21 1.25 1.23 1.11 1.15 1.16 1.19 1.19 1.18 1.25 1.35 1.39 1.47
0.52 0.54 0.57 0.55 0.58 0.60 0.58 0.62 0.66 0.65 0.68 0.70 0.72 0.71 0.71 0.68 0.79 0.72 0.67 0.65 0.70 0.79 0.82 0.92 1.02 1.06 1.07 1.11 1.15 1.15 1.18 1.29 1.28 1.20 1.16 1.13 1.16 1.19 1.19 1.19 1.27 1.41 1.41
0.50 0.52 0.53 0.55 0.57 0.62 0.61 0.58 0.59 0.65 0.66 0.70 0.71 0.74 0.75 0.75 0.77 0.82 0.78 0.78 0.75 0.78 0.78 0.76 0.90 0.96 1.07 1.11 1.11 1.14 1.15 1.25 1.30 1.21 1.21 1.20 1.15 1.15 1.20 1.23 1.26 1.35 1.43
0.52 0.51 0.52 0.54 0.57 0.58 0.60 0.62 0.59 0.59 0.62 0.67 0.71 0.74 0.77 0.80 0.84 0.84 0.91 0.86 0.80 0.70 0.75 0.87 0.86 1.00 1.01 1.07 1.08 1.15 1.13 1.15 1.19 1.25 1.21 1.21 1.17 1.15 1.15 1.19 1.23 1.29 1.41
0.52 0.49 0.50 0.51 0.54 0.58 0.59 0.60 0.61 0.61 0.62 0.66 0.69 0.72 0.78 0.84 0.86 0.89 0.98 0.95 0.89 0.78 0.68 0.89 0.94 0.98 1.07 1.08 1.14 1.12 1.14 1.13 1.15 1.20 1.22 1.20 1.17 1.15 1.14 1.13 1.16 1.22 1.31
0.53 0.51 0.49 0.50 0.51 0.54 0.58 0.60 0.62 0.62 0.64 0.67 0.71 0.73 0.79 0.84 0.87 0.89 0.94 0.92 0.89 0.90 0.74 0.87 1.01 1.10 1.09 1.08 1.10 1.14 1.14 1.15 1.20 1.21 1.24 1.21 1.19 1.14 1.16 1.16 1.15 1.16 1.24
0.53 0.52 0.51 0.51 0.51 0.53 0.54 0.58 0.60 0.62 0.61 0.62 0.67 0.73 0.78 0.82 0.83 0.92 0.94 0.89 0.91 0.94 0.93 0.87 1.00 1.05 1.06 1.15 1.20 1.19 1.17 1.23 1.23 1.27 1.25 1.19 1.18 1.17 1.18 1.19 1.16 1.14 1.21
0.53 0.52 0.52 0.51 0.51 0.52 0.53 0.54 0.57 0.60 0.63 0.63 0.65 0.67 0.69 0.73 0.75 0.78 0.81 0.92 0.95 0.95 0.97 0.93 0.91 1.07 1.12 1.13 1.14 1.22 1.21 1.24 1.31 1.34 1.28 1.23 1.21 1.20 1.19 1.19 1.17 1.17 1.21
0.53 0.52 0.51 0.51 0.52 0.53 0.54 0.54 0.55 0.57 0.60 0.61 0.64 0.66 0.68 0.69 0.70 0.75 0.81 0.86 0.92 1.00 1.00 0.99 0.99 1.08 1.12 1.20 1.21 1.15 1.13 1.22 1.22 1.27 1.26 1.22 1.20 1.22 1.21 1.21 1.22 1.18 1.19
0.50 0.51 0.50 0.50 0.50 0.51 0.52 0.54 0.56 0.56 0.56 0.58 0.60 0.63 0.65 0.69 0.72 0.76 0.80 0.84 0.88 0.88 0.99 1.00 1.05 1.08 1.12 1.11 1.07 1.16 1.13 1.14 1.19 1.19 1.18 1.17 1.21 1.21 1.19 1.20 1.22 1.17 1.17
0.36 0.37 0.39 0.43 0.46 0.47 0.49 0.51 0.52 0.53 0.54 0.54 0.55 0.57 0.61 0.63 0.68 0.74 0.78 0.83 0.83 0.86 0.89 1.01 1.04 1.05 1.11 1.09 1.14 1.13 1.13 1.07 0.99 1.17 1.16 1.11 1.20 1.15 1.17 1.20 1.20 1.16 1.24
0.24 0.23 0.23 0.25 0.28 0.33 0.40 0.45 0.49 0.50 0.51 0.51 0.53 0.55 0.56 0.60 0.65 0.68 0.73 0.78 0.80 0.81 0.82 0.91 0.98 1.08 1.05 1.10 1.13 1.09 1.08 1.05 1.05 1.18 1.19 1.06 1.16 1.11 1.19 1.19 1.16 1.15 1.29
0.19 0.19 0.19 0.21 0.21 0.23 0.24 0.25 0.31 0.39 0.44 0.49 0.50 0.52 0.54 0.56 0.60 0.64 0.68 0.71 0.74 0.79 0.84 0.89 0.91 0.97 1.00 1.05 1.07 1.17 1.12 1.11 1.11 1.14 1.23 1.06 1.11 1.09 1.17 1.16 1.14 1.16 1.28
0.18 0.17 0.17 0.17 0.18 0.19 0.20 0.19 0.19 0.21 0.24 0.28 0.38 0.46 0.49 0.52 0.55 0.59 0.62 0.64 0.68 0.74 0.82 0.86 0.89 0.92 0.99 1.03 1.10 1.14 1.10 1.02 0.94 1.02 1.13 1.11 1.05 1.05 1.08 1.09 1.10 1.16 1.19
0.15 0.15 0.15 0.16 0.16 0.16 0.17 0.16 0.15 0.15 0.15 0.17 0.21 0.25 0.32 0.41 0.48 0.52 0.56 0.59 0.62 0.68 0.74 0.77 0.81 0.86 0.94 0.97 0.98 0.99 1.00 0.97 0.97 0.93 1.05 1.02 1.05 1.07 0.99 1.06 1.05 1.07 1.14

GFSMA_prec_pwat_126.txt.gz
Precipitable_Water
1.47 1.55 1.54 1.61 1.70 1.73 1.67 1.64 1.64 1.66 1.64 1.61 1.58 1.55 1.49 1.39 1.34 1.30 1.30 1.26 1.21 1.22 1.25 1.27 1.31 1.34 1.36 1.40 1.44 1.48 1.49 1.52 1.55 1.54 1.55 1.56 1.56 1.62 1.62 1.64 1.63 1.43 1.27
1.42 1.41 1.56 1.60 1.61 1.68 1.73 1.75 1.67 1.63 1.64 1.68 1.60 1.58 1.55 1.51 1.46 1.42 1.37 1.36 1.26 1.19 1.24 1.26 1.27 1.33 1.36 1.40 1.41 1.42 1.46 1.51 1.54 1.53 1.54 1.52 1.51 1.59 1.69 1.70 1.65 1.54 1.34
1.38 1.46 1.45 1.50 1.65 1.72 1.72 1.73 1.72 1.74 1.71 1.68 1.61 1.64 1.62 1.57 1.54 1.51 1.47 1.41 1.40 1.30 1.23 1.24 1.25 1.26 1.29 1.36 1.41 1.42 1.43 1.47 1.53 1.49 1.47 1.49 1.48 1.50 1.63 1.70 1.71 1.63 1.43
1.25 1.27 1.26 1.29 1.33 1.38 1.55 1.72 1.70 1.67 1.66 1.63 1.59 1.63 1.64 1.66 1.57 1.54 1.56 1.51 1.46 1.43 1.33 1.25 1.23 1.23 1.22 1.27 1.34 1.35 1.40 1.44 1.49 1.45 1.45 1.43 1.44 1.43 1.51 1.70 1.72 1.69 1.57
1.10 1.12 1.13 1.18 1.22 1.23 1.29 1.35 1.45 1.66 1.66 1.66 1.64 1.63 1.61 1.57 1.59 1.61 1.56 1.58 1.52 1.49 1.40 1.31 1.28 1.24 1.25 1.23 1.28 1.33 1.30 1.35 1.40 1.43 1.45 1.42 1.41 1.40 1.41 1.56 1.71 1.70 1.66
1.01 0.97 0.93 0.94 0.96 0.98 1.02 1.14 1.27 1.39 1.55 1.64 1.65 1.64 1.65 1.68 1.67 1.74 1.73 1.68 1.60 1.54 1.51 1.40 1.25 1.26 1.29 1.31 1.27 1.31 1.30 1.29 1.35 1.38 1.34 1.38 1.39 1.38 1.37 1.43 1.61 1.67 1.69
0.83 0.79 0.77 0.77 0.79 0.77 0.82 0.91 0.98 1.09 1.22 1.42 1.44 1.47 1.57 1.61 1.56 1.57 1.57 1.45 1.50 1.49 1.51 1.56 1.32 1.37 1.31 1.31 1.32 1.24 1.32 1.32 1.30 1.32 1.32 1.29 1.32 1.35 1.34 1.34 1.52 1.59 1.63
0.77 0.75 0.73 0.71 0.73 0.70 0.70 0.70 0.73 0.77 0.88 1.12 1.14 1.24 1.15 1.31 1.46 1.57 1.34 1.29 1.29 1.42 1.46 1.52 1.41 1.43 1.36 1.40 1.41 1.26 1.23 1.26 1.29 1.28 1.25 1.26 1.25 1.24 1.30 1.28 1.33 1.54 1.57
0.76 0.73 0.71 0.70 0.71 0.71 0.65 0.67 0.67 0.65 0.66 0.79 1.02 1.02 0.89 0.86 1.02 1.15 1.12 1.20 1.26 1.30 1.39 1.34 1.40 1.35 1.36 1.38 1.42 1.33 1.22 1.22 1.30 1.30 1.23 1.20 1.24 1.23 1.25 1.23 1.23 1.46 1.54
0.69 0.66 0.66 0.67 0.69 0.69 0.64 0.63 0.67 0.67 0.67 0.61 0.74 0.91 1.04 1.01 0.85 0.79 1.01 1.01 1.15 1.22 1.29 1.27 1.22 1.26 1.26 1.28 1.29 1.29 1.23 1.20 1.27 1.30 1.26 1.21 1.19 1.21 1.23 1.22 1.19 1.33 1.46
0.67 0.68 0.72 0.73 0.72 0.68 0.65 0.62 0.61 0.64 0.68 0.67 0.67 0.71 0.79 0.89 1.02 0.95 0.80 0.97 1.13 1.07 1.10 1.19 1.19 1.19 1.24 1.26 1.19 1.18 1.17 1.16 1.18 1.27 1.26 1.24 1.20 1.19 1.20 1.22 1.18 1.24 1.38
0.69 0.69 0.68 0.71 0.68 0.66 0.66 0.62 0.63 0.63 0.65 0.71 0.73 0.74 0.70 0.71 0.74 0.82 0.85 0.84 0.83 0.91 1.00 1.03 1.10 1.18 1.16 1.18 1.16 1.17 1.19 1.17 1.15 1.23 1.26 1.26 1.26 1.17 1.17 1.18 1.22 1.21 1.30
0.71 0.73 0.70 0.62 0.60 0.57 0.59 0.62 0.60 0.61 0.61 0.63 0.68 0.72 0.77 0.78 0.79 0.76 0.75 0.81 0.74 0.79 0.82 0.95 0.98 1.01 1.07 1.17 1.21 1.17 1.16 1.13 1.12 1.18 1.26 1.26 1.27 1.19 1.19 1.20 1.21 1.24 1.23
0.77 0.73 0.61 0.58 0.54 0.56 0.59 0.61 0.61 0.62 0.63 0.62 0.60 0.68 0.70 0.76 0.81 0.80 0.73 0.74 0.72 0.73 0.77 0.80 0.94 1.02 1.08 1.09 1.03 1.03 1.07 1.06 1.14 1.15 1.18 1.24 1.25 1.21 1.18 1.21 1.20 1.21 1.24
0.75 0.62 0.56 0.57 0.58 0.56 0.56 0.57 0.59 0.60 0.62 0.63 0.63 0.61 0.68 0.73 0.78 0.82 0.84 0.84 0.78 0.67 0.64 0.81 0.89 1.05 1.06 1.03 1.04 1.06 1.02 1.05 1.11 1.15 1.16 1.19 1.23 1.23 1.19 1.16 1.19 1.20 1.21
0.63 0.61 0.62 0.59 0.54 0.53 0.52 0.54 0.56 0.59 0.60 0.62 0.62 0.61 0.63 0.71 0.76 0.82 0.85 0.89 0.88 0.81 0.70 0.82 0.79 0.93 1.07 1.09 1.13 1.13 1.07 1.02 1.08 1.12 1.16 1.17 1.21 1.24 1.26 1.21 1.16 1.19 1.22
0.63 0.63 0.61 0.59 0.57 0.54 0.55 0.54 0.53 0.56 0.59 0.60 0.62 0.62 0.61 0.65 0.70 0.77 0.84 0.90 0.88 0.87 0.78 0.91 0.97 0.95 1.00 1.03 1.13 1.19 1.18 1.12 1.07 1.07 1.11 1.14 1.14 1.18 1.24 1.24 1.19 1.17 1.21
0.62 0.62 0.59 0.57 0.55 0.54 0.54 0.53 0.53 0.53 0.55 0.58 0.60 0.62 0.62 0.64 0.68 0.73 0.77 0.82 0.83 0.93 0.88 0.79 0.84 0.91 0.93 1.02 1.12 1.18 1.25 1.22 1.16 1.12 1.12 1.14 1.13 1.13 1.19 1.21 1.22 1.18 1.18
0.59 0.57 0.56 0.55 0.54 0.54 0.54 0.54 0.54 0.54 0.55 0.57 0.61 0.62 0.65 0.66 0.65 0.72 0.77 0.81 0.85 0.89 0.92 0.91 0.86 0.95 0.93 1.05 1.06 1.15 1.15 1.19 1.19 1.21 1.20 1.16 1.12 1.15 1.21 1.25 1.23 1.17 1.15
0.51 0.52 0.52 0.51 0.51 0.52 0.52 0.53 0.54 0.55 0.55 0.56 0.58 0.60 0.62 0.66 0.68 0.69 0.71 0.75 0.78 0.78 0.83 0.87 0.89 0.92 0.94 0.99 1.05 1.02 1.02 1.13 1.09 1.13 1.22 1.25 1.25 1.20 1.22 1.25 1.26 1.18 1.17
0.39 0.40 0.40 0.42 0.43 0.42 0.46 0.49 0.51 0.52 0.53 0.54 0.56 0.58 0.59 0.62 0.64 0.65 0.67 0.68 0.71 0.73 0.75 0.76 0.80 0.88 0.95 0.95 0.97 1.07 1.00 1.11 1.14 1.23 1.20 1.23 1.26 1.23 1.23 1.27 1.27 1.21 1.20
0.29 0.28 0.27 0.27 0.26 0.25 0.27 0.31 0.39 0.44 0.49 0.50 0.52 0.54 0.56 0.58 0.61 0.62 0.63 0.65 0.67 0.67 0.68 0.74 0.72 0.75 0.77 0.85 0.97 1.06 1.05 1.08 0.97 1.22 1.18 1.14 1.24 1.18 1.23 1.24 1.26 1.23 1.20
0.23 0.22 0.22 0.22 0.21 0.21 0.21 0.22 0.24 0.27 0.28 0.34 0.41 0.48 0.51 0.54 0.56 0.58 0.62 0.62 0.63 0.65 0.68 0.68 0.68 0.69 0.72 0.84 0.85 0.93 1.08 1.12 1.07 1.16 1.17 1.09 1.19 1.14 1.23 1.22 1.27 1.26 1.24
0.19 0.18 0.18 0.18 0.18 0.18 0.18 0.17 0.20 0.21 0.22 0.22 0.23 0.26 0.32 0.42 0.48 0.52 0.55 0.57 0.60 0.62 0.65 0.67 0.67 0.70 0.71 0.75 0.78 0.90 0.99 1.06 1.18 1.15 1.19 0.97 1.13 1.10 1.18 1.21 1.23 1.24 1.24
0.19 0.18 0.18 0.17 0.17 0.16 0.15 0.14 0.16 0.17 0.18 0.18 0.19 0.19 0.19 0.23 0.26 0.36 0.44 0.49 0.53 0.56 0.62 0.65 0.68 0.70 0.73 0.74 0.78 0.84 0.90 0.93 0.99 1.01 1.16 1.10 1.06 1.07 1.10 1.15 1.18 1.20 1.19
0.18 0.17 0.16 0.16 0.16 0.15 0.15 0.14 0.14 0.15 0.15 0.15 0.16 0.17 0.15 0.15 0.17 0.19 0.21 0.24 0.37 0.45 0.51 0.57 0.61 0.65 0.69 0.71 0.75 0.82 0.85 0.85 0.88 0.96 1.05 1.03 1.05 1.04 0.99 1.08 1.15 1.15 1.15

GFSMA_prec_pwat_129.txt.gz
Precipitable_Water
1.45 1.52 1.52 1.58 1.62 1.64 1.66 1.67 1.66 1.64 1.68 1.72 1.73 1.65 1.62 1.53 1.47 1.45 1.39 1.39 1.32 1.24 1.19 1.24 1.27 1.28 1.27 1.29 1.35 1.39 1.46 1.51 1.57 1.57 1.58 1.56 1.52 1.52 1.52 1.60 1.63 1.63 1.46
1.43 1.43 1.45 1.46 1.54 1.66 1.70 1.69 1.69 1.70 1.70 1.70 1.66 1.69 1.64 1.66 1.66 1.54 1.45 1.47 1.39 1.30 1.21 1.22 1.26 1.29 1.31 1.31 1.35 1.37 1.43 1.47 1.51 1.57 1.58 1.58 1.55 1.53 1.51 1.62 1.61 1.65 1.63
1.22 1.24 1.30 1.42 1.52 1.62 1.71 1.78 1.78 1.76 1.72 1.70 1.64 1.67 1.69 1.68 1.66 1.63 1.62 1.54 1.61 1.45 1.29 1.21 1.24 1.27 1.27 1.29 1.30 1.34 1.39 1.42 1.47 1.52 1.57 1.58 1.55 1.53 1.51 1.53 1.60 1.67 1.67
1.13 1.12 1.14 1.22 1.33 1.36 1.36 1.40 1.49 1.55 1.70 1.73 1.64 1.64 1.61 1.68 1.70 1.67 1.71 1.67 1.62 1.62 1.51 1.36 1.26 1.23 1.27 1.23 1.21 1.22 1.30 1.37 1.38 1.45 1.52 1.56 1.56 1.56 1.50 1.47 1.50 1.65 1.73
1.09 1.09 1.07 1.10 1.14 1.14 1.20 1.20 1.24 1.30 1.29 1.40 1.45 1.76 1.70 1.63 1.71 1.72 1.70 1.66 1.65 1.62 1.69 1.63 1.45 1.32 1.30 1.28 1.19 1.17 1.19 1.29 1.33 1.36 1.43 1.50 1.49 1.49 1.48 1.48 1.47 1.56 1.69
1.06 1.08 1.04 1.02 1.00 0.96 0.93 0.98 1.02 1.08 1.13 1.18 1.25 1.31 1.53 1.72 1.76 1.72 1.78 1.83 1.80 1.75 1.74 1.69 1.68 1.52 1.37 1.36 1.32 1.17 1.17 1.19 1.24 1.29 1.33 1.40 1.45 1.43 1.45 1.46 1.45 1.45 1.61
1.02 1.00 0.98 0.95 0.87 0.76 0.75 0.80 0.83 0.81 0.82 0.99 1.04 1.16 1.23 1.46 1.54 1.75 1.60 1.67 1.61 1.47 1.47 1.60 1.52 1.59 1.52 1.41 1.37 1.32 1.25 1.27 1.23 1.23 1.26 1.31 1.39 1.39 1.37 1.40 1.42 1.41 1.47
0.91 0.88 0.85 0.79 0.74 0.70 0.69 0.71 0.71 0.66 0.66 0.76 0.78 0.84 0.86 1.00 1.22 1.38 1.47 1.46 1.41 1.36 1.27 1.35 1.37 1.49 1.54 1.56 1.55 1.44 1.33 1.28 1.27 1.29 1.22 1.23 1.29 1.35 1.36 1.32 1.33 1.35 1.39
0.82 0.80 0.79 0.76 0.72 0.70 0.65 0.67 0.70 0.68 0.58 0.62 0.71 0.76 0.66 0.70 0.95 1.16 1.15 1.20 1.28 1.25 1.30 1.27 1.30 1.44 1.51 1.60 1.58 1.52 1.44 1.30 1.29 1.36 1.26 1.25 1.22 1.28 1.33 1.30 1.27 1.27 1.29
0.76 0.76 0.73 0.71 0.69 0.66 0.63 0.65 0.71 0.70 0.66 0.52 0.61 0.69 0.78 0.79 0.74 0.78 1.15 1.22 1.19 1.14 1.15 1.16 1.18 1.28 1.35 1.41 1.45 1.49 1.47 1.36 1.32 1.34 1.36 1.31 1.26 1.25 1.30 1.26 1.28 1.25 1.24
0.70 0.69 0.70 0.69 0.65 0.65 0.66 0.67 0.68 0.68 0.68 0.63 0.58 0.58 0.64 0.67 0.73 0.74 0.74 0.86 1.17 1.25 1.25 1.18 1.21 1.21 1.36 1.44 1.46 1.39 1.34 1.29 1.25 1.22 1.30 1.34 1.30 1.29 1.30 1.26 1.22 1.22 1.23
0.78 0.73 0.72 0.71 0.71 0.71 0.67 0.69 0.69 0.66 0.65 0.65 0.62 0.63 0.61 0.60 0.59 0.65 0.69 0.83 0.88 0.99 1.21 1.30 1.31 1.23 1.23 1.34 1.44 1.36 1.30 1.27 1.26 1.24 1.22 1.27 1.31 1.30 1.32 1.29 1.27 1.19 1.19
0.74 0.76 0.81 0.80 0.76 0.75 0.75 0.74 0.68 0.60 0.61 0.63 0.63 0.62 0.64 0.63 0.69 0.70 0.70 0.67 0.70 0.82 1.01 1.19 1.15 1.22 1.13 1.30 1.29 1.34 1.25 1.22 1.28 1.27 1.24 1.25 1.30 1.32 1.31 1.29 1.29 1.26 1.18
0.65 0.71 0.77 0.82 0.82 0.81 0.76 0.69 0.60 0.59 0.60 0.59 0.61 0.64 0.64 0.64 0.64 0.67 0.67 0.70 0.65 0.68 0.70 0.90 1.01 1.05 1.01 1.19 1.26 1.19 1.21 1.19 1.19 1.21 1.24 1.26 1.26 1.27 1.32 1.31 1.29 1.27 1.20
0.62 0.65 0.69 0.77 0.81 0.73 0.65 0.60 0.60 0.57 0.55 0.56 0.57 0.61 0.62 0.64 0.66 0.65 0.67 0.72 0.69 0.58 0.61 0.77 0.77 1.01 1.00 1.08 1.17 1.12 1.13 1.32 1.13 1.13 1.09 1.16 1.21 1.24 1.27 1.33 1.32 1.27 1.22
0.65 0.65 0.65 0.69 0.68 0.63 0.61 0.61 0.55 0.56 0.52 0.52 0.54 0.56 0.59 0.59 0.60 0.63 0.62 0.68 0.76 0.73 0.61 0.81 0.83 0.98 1.13 1.02 1.11 1.06 1.16 1.17 1.13 1.12 1.03 1.05 1.12 1.18 1.23 1.27 1.29 1.25 1.23
0.63 0.64 0.66 0.67 0.67 0.64 0.64 0.59 0.57 0.55 0.53 0.53 0.53 0.55 0.57 0.61 0.61 0.62 0.64 0.65 0.71 0.77 0.69 0.80 0.93 0.97 1.03 1.06 1.01 1.14 1.18 1.15 1.22 1.17 1.13 1.03 1.00 1.10 1.18 1.23 1.28 1.26 1.25
0.60 0.61 0.61 0.61 0.63 0.63 0.63 0.61 0.58 0.55 0.53 0.53 0.54 0.54 0.56 0.62 0.62 0.64 0.65 0.65 0.68 0.76 0.73 0.69 0.84 0.93 0.97 1.10 1.10 1.04 1.07 1.26 1.18 1.31 1.26 1.21 1.08 1.03 1.08 1.14 1.23 1.27 1.25
0.60 0.61 0.60 0.57 0.57 0.57 0.57 0.58 0.56 0.55 0.55 0.55 0.56 0.56 0.56 0.60 0.64 0.65 0.66 0.65 0.68 0.71 0.74 0.72 0.76 0.85 0.94 1.06 0.99 1.00 1.01 1.01 1.09 1.23 1.24 1.24 1.21 1.15 1.08 1.09 1.12 1.16 1.19
0.49 0.51 0.50 0.47 0.44 0.45 0.48 0.51 0.52 0.53 0.53 0.54 0.55 0.55 0.55 0.56 0.57 0.62 0.66 0.70 0.69 0.68 0.71 0.72 0.77 0.80 0.86 0.89 1.01 0.97 0.90 0.95 0.96 1.16 1.21 1.22 1.20 1.16 1.15 1.15 1.15 1.15 1.18
0.35 0.35 0.35 0.34 0.31 0.27 0.29 0.31 0.35 0.37 0.41 0.46 0.49 0.51 0.53 0.54 0.56 0.58 0.57 0.59 0.67 0.69 0.67 0.67 0.70 0.72 0.74 0.76 0.81 0.81 0.83 0.88 1.00 1.16 1.17 1.17 1.10 1.10 1.12 1.15 1.18 1.22 1.21
0.29 0.29 0.28 0.26 0.23 0.21 0.23 0.25 0.26 0.25 0.24 0.24 0.25 0.31 0.39 0.45 0.52 0.54 0.57 0.59 0.60 0.57 0.60 0.60 0.62 0.65 0.67 0.70 0.76 0.73 0.78 0.81 0.78 1.10 1.16 1.07 1.17 1.11 1.15 1.20 1.22 1.25 1.26
0.25 0.24 0.24 0.23 0.20 0.18 0.18 0.21 0.23 0.22 0.21 0.20 0.19 0.18 0.19 0.22 0.29 0.39 0.48 0.53 0.56 0.59 0.60 0.61 0.58 0.58 0.59 0.63 0.65 0.72 0.72 0.73 0.74 0.83 0.94 1.00 1.18 1.11 1.21 1.24 1.27 1.27 1.26
0.22 0.21 0.20 0.19 0.19 0.17 0.16 0.18 0.22 0.21 0.20 0.19 0.18 0.16 0.16 0.16 0.17 0.18 0.23 0.31 0.39 0.49 0.55 0.56 0.59 0.60 0.61 0.62 0.62 0.64 0.68 0.71 0.73 0.83 0.98 0.89 1.12 1.08 1.18 1.23 1.25 1.27 1.27
0.22 0.22 0.21 0.19 0.18 0.17 0.17 0.15 0.17 0.19 0.17 0.18 0.18 0.17 0.14 0.14 0.14 0.15 0.15 0.15 0.17 0.24 0.36 0.43 0.52 0.56 0.58 0.60 0.61 0.60 0.59 0.58 0.59 0.70 0.83 0.80 0.94 1.04 1.13 1.15 1.19 1.19 1.24
0.21 0.21 0.20 0.19 0.18 0.16 0.16 0.15 0.15 0.16 0.15 0.14 0.15 0.14 0.12 0.12 0.12 0.13 0.12 0.12 0.12 0.14 0.17 0.20 0.26 0.35 0.47 0.54 0.57 0.56 0.55 0.53 0.55 0.61 0.74 0.69 0.79 0.86 0.94 1.11 1.11 1.15 1.19

GFSMA_prec_pwat_132.txt.gz
Precipitable_Water
1.50 1.59 1.59 1.61 1.62 1.66 1.68 1.70 1.74 1.69 1.70 1.63 1.61 1.57 1.53 1.62 1.64 1.55 1.44 1.41 1.39 1.37 1.32 1.23 1.15 1.19 1.23 1.28 1.30 1.31 1.36 1.40 1.46 1.51 1.56 1.55 1.55 1.50 1.53 1.53 1.58 1.58 1.56
1.31 1.31 1.34 1.42 1.44 1.45 1.53 1.60 1.64 1.73 1.75 1.76 1.69 1.62 1.56 1.56 1.58 1.61 1.56 1.62 1.60 1.48 1.37 1.31 1.19 1.22 1.25 1.29 1.33 1.34 1.33 1.36 1.43 1.48 1.53 1.55 1.56 1.56 1.52 1.54 1.55 1.62 1.62
1.32 1.29 1.26 1.23 1.20 1.26 1.30 1.38 1.57 1.69 1.70 1.72 1.70 1.81 1.80 1.70 1.64 1.60 1.57 1.60 1.59 1.58 1.49 1.39 1.30 1.22 1.27 1.27 1.30 1.33 1.36 1.34 1.38 1.42 1.46 1.52 1.55 1.56 1.52 1.49 1.49 1.55 1.62
1.24 1.22 1.15 1.10 1.15 1.15 1.14 1.20 1.25 1.26 1.38 1.50 1.53 1.51 1.80 1.86 1.87 1.80 1.73 1.60 1.66 1.64 1.62 1.65 1.54 1.34 1.30 1.34 1.33 1.32 1.32 1.31 1.33 1.37 1.41 1.46 1.50 1.56 1.56 1.56 1.51 1.48 1.53
1.14 1.16 1.10 1.06 1.06 1.03 1.03 1.07 1.08 1.11 1.07 1.09 1.19 1.34 1.43 1.47 1.31 1.69 1.71 1.80 1.75 1.77 1.78 1.81 1.73 1.60 1.50 1.44 1.37 1.39 1.37 1.31 1.28 1.29 1.33 1.36 1.43 1.48 1.54 1.54 1.52 1.45 1.43
1.09 1.08 1.08 1.05 1.05 1.01 0.97 0.96 0.93 0.93 0.87 0.84 0.86 0.90 1.02 1.10 1.23 1.31 1.28 1.46 1.81 1.87 1.82 1.90 1.73 1.75 1.68 1.53 1.46 1.43 1.41 1.38 1.34 1.26 1.26 1.30 1.35 1.40 1.45 1.48 1.46 1.43 1.45
0.89 0.92 0.92 0.93 0.95 0.95 0.94 0.90 0.79 0.68 0.66 0.74 0.71 0.71 0.74 0.84 0.90 1.15 1.25 1.37 1.52 1.58 1.62 1.52 1.54 1.48 1.51 1.55 1.50 1.42 1.50 1.47 1.40 1.38 1.28 1.25 1.30 1.33 1.36 1.41 1.41 1.40 1.44
0.80 0.79 0.77 0.81 0.81 0.81 0.81 0.79 0.72 0.64 0.63 0.69 0.62 0.64 0.52 0.57 0.76 0.93 1.03 1.15 1.21 1.28 1.36 1.44 1.31 1.34 1.41 1.45 1.50 1.38 1.47 1.49 1.44 1.44 1.37 1.32 1.25 1.29 1.32 1.34 1.39 1.38 1.37
0.70 0.71 0.72 0.72 0.74 0.75 0.71 0.72 0.67 0.61 0.53 0.60 0.67 0.66 0.56 0.50 0.54 0.64 0.85 1.11 1.26 1.29 1.28 1.28 1.38 1.39 1.38 1.37 1.45 1.53 1.54 1.49 1.51 1.49 1.44 1.41 1.33 1.32 1.29 1.31 1.32 1.39 1.36
0.67 0.67 0.66 0.70 0.71 0.72 0.70 0.68 0.67 0.62 0.60 0.57 0.63 0.70 0.73 0.70 0.56 0.45 0.57 0.67 0.92 1.07 1.30 1.33 1.24 1.30 1.31 1.31 1.38 1.53 1.54 1.57 1.59 1.49 1.50 1.44 1.36 1.32 1.33 1.29 1.28 1.33 1.36
0.69 0.70 0.73 0.71 0.68 0.69 0.69 0.67 0.65 0.62 0.63 0.61 0.61 0.63 0.65 0.64 0.65 0.61 0.47 0.52 0.65 0.86 1.09 1.24 1.34 1.30 1.24 1.21 1.28 1.37 1.45 1.52 1.52 1.49 1.48 1.48 1.41 1.33 1.37 1.35 1.30 1.32 1.35
0.70 0.72 0.74 0.75 0.78 0.76 0.74 0.74 0.71 0.66 0.65 0.66 0.67 0.68 0.63 0.58 0.57 0.57 0.53 0.51 0.52 0.59 0.80 0.98 1.22 1.37 1.38 1.30 1.29 1.26 1.35 1.43 1.48 1.49 1.48 1.47 1.39 1.35 1.32 1.37 1.33 1.36 1.38
0.56 0.60 0.66 0.67 0.72 0.77 0.78 0.78 0.75 0.74 0.72 0.68 0.71 0.69 0.65 0.62 0.66 0.64 0.60 0.54 0.48 0.54 0.64 0.79 1.01 1.11 1.33 1.53 1.39 1.29 1.23 1.32 1.43 1.55 1.49 1.40 1.36 1.32 1.31 1.31 1.34 1.42 1.41
0.53 0.61 0.62 0.63 0.63 0.67 0.71 0.76 0.77 0.75 0.75 0.71 0.71 0.65 0.59 0.60 0.61 0.63 0.61 0.56 0.45 0.45 0.52 0.59 0.72 0.97 1.11 1.46 1.62 1.37 1.31 1.31 1.29 1.36 1.48 1.46 1.40 1.38 1.38 1.36 1.32 1.41 1.47
0.50 0.52 0.64 0.67 0.66 0.67 0.70 0.74 0.74 0.72 0.75 0.72 0.64 0.60 0.56 0.55 0.56 0.59 0.62 0.63 0.55 0.42 0.40 0.53 0.62 0.76 0.89 1.21 1.26 1.18 1.20 1.32 1.35 1.25 1.27 1.33 1.33 1.36 1.36 1.33 1.34 1.35 1.39
0.50 0.55 0.56 0.64 0.65 0.68 0.72 0.71 0.68 0.65 0.64 0.63 0.60 0.55 0.53 0.52 0.53 0.56 0.58 0.63 0.62 0.54 0.43 0.58 0.63 0.80 0.91 0.98 1.07 1.08 1.12 1.11 1.28 1.36 1.25 1.20 1.27 1.23 1.28 1.30 1.31 1.32 1.27
0.51 0.55 0.60 0.63 0.64 0.66 0.69 0.69 0.65 0.62 0.61 0.59 0.58 0.55 0.52 0.54 0.54 0.56 0.59 0.63 0.62 0.59 0.50 0.55 0.68 0.78 0.85 0.94 1.01 1.09 1.30 1.19 1.23 1.43 1.21 1.21 1.28 1.28 1.17 1.09 1.14 1.20 1.26
0.52 0.54 0.56 0.60 0.59 0.62 0.64 0.65 0.63 0.63 0.61 0.59 0.58 0.54 0.53 0.56 0.56 0.57 0.59 0.61 0.64 0.64 0.59 0.53 0.62 0.71 0.80 0.91 0.91 0.96 1.12 1.23 1.13 1.14 1.16 1.21 1.28 1.33 1.28 1.19 1.03 1.05 1.13
0.47 0.51 0.51 0.49 0.50 0.52 0.55 0.57 0.57 0.59 0.60 0.58 0.55 0.53 0.53 0.53 0.53 0.55 0.57 0.59 0.64 0.66 0.65 0.61 0.60 0.69 0.73 0.77 0.81 0.88 0.90 0.95 1.07 1.13 1.11 1.20 1.31 1.26 1.30 1.29 1.22 1.16 1.13
0.37 0.41 0.39 0.36 0.34 0.34 0.36 0.37 0.38 0.40 0.41 0.44 0.46 0.47 0.49 0.50 0.52 0.53 0.53 0.54 0.58 0.62 0.64 0.64 0.64 0.63 0.66 0.70 0.76 0.72 0.73 0.83 0.90 1.00 1.05 1.11 1.16 1.20 1.22 1.25 1.25 1.23 1.22
0.30 0.31 0.29 0.25 0.24 0.24 0.29 0.31 0.31 0.28 0.26 0.24 0.26 0.29 0.29 0.33 0.39 0.46 0.49 0.50 0.52 0.52 0.53 0.56 0.60 0.61 0.62 0.63 0.59 0.73 0.68 0.77 0.79 0.91 0.91 0.95 1.03 1.19 1.16 1.16 1.17 1.17 1.16
0.27 0.25 0.26 0.22 0.19 0.20 0.24 0.27 0.27 0.26 0.23 0.20 0.17 0.19 0.18 0.18 0.21 0.28 0.32 0.36 0.43 0.46 0.48 0.49 0.50 0.53 0.60 0.61 0.62 0.60 0.64 0.62 0.61 0.80 0.77 0.80 0.96 0.92 1.12 1.18 1.16 1.14 1.14
0.23 0.21 0.22 0.22 0.18 0.19 0.21 0.24 0.25 0.24 0.22 0.20 0.16 0.15 0.15 0.15 0.15 0.16 0.19 0.22 0.28 0.31 0.34 0.40 0.42 0.45 0.50 0.55 0.59 0.59 0.57 0.59 0.57 0.68 0.72 0.64 0.81 0.79 0.91 0.99 1.12 1.19 1.17
0.21 0.20 0.19 0.19 0.18 0.18 0.17 0.20 0.22 0.21 0.21 0.19 0.17 0.14 0.14 0.14 0.15 0.13 0.12 0.13 0.15 0.19 0.23 0.26 0.30 0.33 0.40 0.43 0.51 0.56 0.57 0.57 0.57 0.60 0.61 0.54 0.67 0.65 0.75 0.86 0.96 1.11 1.20
0.22 0.21 0.21 0.20 0.17 0.17 0.17 0.16 0.18 0.19 0.17 0.17 0.16 0.15 0.14 0.14 0.14 0.13 0.11 0.10 0.10 0.13 0.17 0.19 0.21 0.24 0.28 0.31 0.33 0.36 0.39 0.45 0.51 0.54 0.59 0.55 0.57 0.58 0.68 0.76 0.87 0.99 1.10
0.22 0.22 0.20 0.19 0.18 0.15 0.17 0.16 0.15 0.16 0.15 0.14 0.14 0.14 0.14 0.14 0.14 0.14 0.12 0.11 0.09 0.11 0.13 0.13 0.13 0.14 0.15 0.20 0.24 0.27 0.29 0.29 0.33 0.38 0.50 0.49 0.51 0.52 0.51 0.67 0.73 0.83 0.90

GFSMA_prec_pwat_135.txt.gz
Precipitable_Water
1.41 1.48 1.44 1.43 1.51 1.60 1.62 1.61 1.63 1.65 1.71 1.76 1.82 1.71 1.65 1.61 1.60 1.58 1.55 1.54 1.44 1.46 1.51 1.48 1.42 1.32 1.18 1.22 1.27 1.30 1.34 1.38 1.41 1.41 1.42 1.49 1.53 1.52 1.49 1.46 1.51 1.53 1.54
1.40 1.36 1.29 1.22 1.25 1.30 1.34 1.37 1.39 1.44 1.50 1.59 1.64 1.75 1.78 1.81 1.83 1.86 1.79 1.80 1.64 1.61 1.61 1.61 1.56 1.47 1.30 1.21 1.24 1.26 1.31 1.35 1.39 1.39 1.43 1.46 1.50 1.53 1.52 1.47 1.49 1.50 1.52
1.24 1.26 1.22 1.20 1.22 1.23 1.20 1.20 1.18 1.21 1.23 1.34 1.44 1.58 1.68 1.76 1.78 1.76 1.74 1.80 2.02 1.87 1.77 1.72 1.62 1.58 1.45 1.27 1.26 1.29 1.30 1.34 1.38 1.38 1.42 1.46 1.47 1.51 1.54 1.54 1.50 1.49 1.49
1.10 1.03 1.08 1.14 1.20 1.17 1.11 1.04 1.02 0.98 1.03 1.09 1.15 1.25 1.40 1.52 1.56 1.54 1.47 1.45 1.53 1.89 1.80 1.76 1.74 1.69 1.64 1.49 1.32 1.30 1.32 1.33 1.36 1.41 1.41 1.43 1.46 1.48 1.51 1.55 1.53 1.52 1.49
0.93 0.97 1.01 1.04 1.06 1.09 1.09 1.03 0.98 0.94 0.88 0.92 0.94 0.97 0.97 1.01 1.10 1.15 1.19 1.25 1.50 1.49 1.74 1.80 1.81 1.87 1.82 1.70 1.54 1.43 1.38 1.37 1.37 1.39 1.42 1.42 1.43 1.45 1.47 1.48 1.53 1.51 1.55
0.76 0.79 0.94 0.97 1.13 0.98 0.98 1.00 0.96 0.96 0.91 0.85 0.78 0.70 0.69 0.73 0.82 0.85 0.96 1.11 1.19 1.27 1.36 1.57 1.53 1.70 1.83 1.80 1.63 1.58 1.58 1.48 1.40 1.39 1.40 1.39 1.41 1.42 1.43 1.44 1.46 1.50 1.49
0.68 0.69 0.72 0.78 0.79 0.81 0.89 0.85 0.84 0.81 0.79 0.76 0.66 0.57 0.55 0.58 0.70 0.79 0.93 0.95 0.99 1.16 1.32 1.43 1.45 1.33 1.45 1.38 1.43 1.54 1.52 1.57 1.60 1.40 1.39 1.38 1.38 1.37 1.40 1.42 1.42 1.44 1.45
0.62 0.62 0.63 0.64 0.66 0.69 0.71 0.71 0.75 0.73 0.73 0.73 0.61 0.57 0.46 0.50 0.69 0.78 0.82 0.89 0.95 1.01 1.08 1.21 1.31 1.32 1.26 1.27 1.29 1.37 1.53 1.63 1.68 1.59 1.38 1.41 1.37 1.37 1.37 1.39 1.41 1.39 1.42
0.62 0.61 0.60 0.60 0.61 0.61 0.61 0.64 0.68 0.67 0.64 0.68 0.68 0.60 0.48 0.45 0.52 0.58 0.61 0.68 0.73 0.84 1.03 1.18 1.24 1.31 1.36 1.37 1.35 1.38 1.41 1.51 1.52 1.49 1.51 1.44 1.44 1.41 1.36 1.36 1.38 1.38 1.37
0.62 0.66 0.64 0.65 0.67 0.66 0.62 0.61 0.63 0.64 0.65 0.60 0.64 0.69 0.68 0.64 0.52 0.44 0.60 0.61 0.66 0.66 0.72 0.87 1.10 1.27 1.33 1.36 1.43 1.47 1.37 1.41 1.44 1.49 1.49 1.42 1.50 1.50 1.43 1.38 1.40 1.37 1.34
0.53 0.55 0.59 0.65 0.67 0.68 0.69 0.68 0.65 0.64 0.66 0.63 0.60 0.61 0.62 0.62 0.63 0.56 0.43 0.52 0.58 0.59 0.65 0.71 0.80 0.95 1.27 1.35 1.39 1.44 1.42 1.41 1.44 1.45 1.40 1.32 1.46 1.58 1.49 1.46 1.41 1.39 1.36
0.46 0.49 0.53 0.55 0.56 0.60 0.66 0.71 0.73 0.73 0.72 0.69 0.68 0.65 0.61 0.58 0.60 0.61 0.55 0.52 0.50 0.50 0.58 0.59 0.70 0.85 1.00 1.26 1.35 1.39 1.38 1.39 1.33 1.37 1.47 1.46 1.44 1.55 1.51 1.46 1.40 1.40 1.39
0.39 0.42 0.46 0.49 0.54 0.57 0.57 0.63 0.67 0.66 0.70 0.74 0.74 0.71 0.71 0.68 0.67 0.69 0.64 0.54 0.47 0.51 0.50 0.60 0.59 0.70 0.88 1.05 1.21 1.32 1.39 1.43 1.40 1.36 1.48 1.55 1.57 1.57 1.50 1.49 1.44 1.42 1.40
0.40 0.42 0.44 0.47 0.48 0.56 0.60 0.62 0.63 0.67 0.69 0.73 0.71 0.72 0.70 0.70 0.69 0.67 0.62 0.53 0.41 0.43 0.47 0.51 0.61 0.64 0.79 0.93 1.10 1.19 1.32 1.42 1.46 1.46 1.33 1.40 1.60 1.63 1.56 1.51 1.45 1.42 1.37
0.44 0.44 0.45 0.45 0.49 0.53 0.59 0.64 0.65 0.68 0.68 0.68 0.68 0.69 0.70 0.70 0.70 0.69 0.62 0.55 0.45 0.34 0.35 0.51 0.55 0.66 0.67 0.77 0.93 1.05 1.22 1.37 1.57 1.50 1.43 1.39 1.44 1.60 1.63 1.54 1.49 1.42 1.39
0.47 0.47 0.47 0.47 0.51 0.56 0.59 0.61 0.66 0.69 0.68 0.67 0.65 0.63 0.64 0.66 0.65 0.62 0.56 0.53 0.51 0.45 0.37 0.51 0.58 0.65 0.67 0.72 0.79 0.88 0.98 1.28 1.41 1.38 1.39 1.43 1.41 1.35 1.46 1.53 1.53 1.51 1.49
0.47 0.47 0.48 0.47 0.50 0.54 0.59 0.63 0.65 0.66 0.66 0.67 0.64 0.62 0.61 0.62 0.58 0.56 0.54 0.53 0.52 0.50 0.45 0.51 0.62 0.67 0.63 0.59 0.69 0.81 0.86 0.94 1.17 1.21 1.16 1.31 1.40 1.51 1.40 1.39 1.46 1.41 1.38
0.45 0.44 0.45 0.43 0.47 0.52 0.55 0.60 0.61 0.62 0.61 0.61 0.59 0.57 0.58 0.58 0.56 0.55 0.53 0.52 0.53 0.54 0.51 0.50 0.60 0.63 0.61 0.60 0.61 0.71 0.80 0.82 0.89 0.95 1.06 1.13 1.24 1.35 1.33 1.33 1.35 1.35 1.33
0.39 0.40 0.41 0.36 0.38 0.41 0.41 0.43 0.43 0.45 0.45 0.50 0.52 0.49 0.53 0.53 0.53 0.53 0.52 0.50 0.51 0.52 0.53 0.53 0.56 0.62 0.62 0.61 0.59 0.64 0.71 0.80 0.82 0.88 1.05 1.04 1.07 1.21 1.25 1.23 1.31 1.38 1.34
0.32 0.29 0.30 0.26 0.24 0.27 0.31 0.33 0.31 0.30 0.25 0.28 0.30 0.30 0.32 0.36 0.37 0.42 0.46 0.46 0.49 0.49 0.49 0.48 0.51 0.56 0.59 0.61 0.61 0.53 0.58 0.66 0.72 0.83 0.84 0.90 1.00 1.02 1.08 1.14 1.18 1.24 1.30
0.31 0.29 0.24 0.21 0.21 0.23 0.25 0.26 0.27 0.26 0.21 0.19 0.21 0.21 0.22 0.23 0.26 0.28 0.29 0.28 0.31 0.36 0.40 0.43 0.43 0.46 0.50 0.54 0.55 0.59 0.55 0.57 0.62 0.67 0.68 0.73 0.80 0.90 0.94 1.01 1.07 1.19 1.22
0.27 0.27 0.21 0.18 0.18 0.21 0.24 0.24 0.23 0.21 0.20 0.18 0.17 0.19 0.19 0.19 0.18 0.19 0.22 0.24 0.25 0.25 0.23 0.22 0.26 0.29 0.35 0.40 0.47 0.52 0.54 0.53 0.53 0.60 0.62 0.63 0.69 0.67 0.78 0.80 0.84 0.97 1.07
0.21 0.20 0.19 0.18 0.17 0.18 0.23 0.22 0.22 0.20 0.18 0.18 0.18 0.17 0.17 0.18 0.16 0.15 0.16 0.17 0.18 0.21 0.22 0.21 0.18 0.21 0.22 0.27 0.29 0.31 0.39 0.46 0.51 0.55 0.53 0.52 0.57 0.58 0.64 0.69 0.77 0.80 0.88
0.21 0.19 0.16 0.16 0.17 0.17 0.19 0.20 0.20 0.19 0.16 0.15 0.16 0.16 0.15 0.16 0.16 0.14 0.12 0.12 0.13 0.14 0.16 0.17 0.16 0.17 0.19 0.22 0.23 0.23 0.24 0.28 0.35 0.46 0.50 0.47 0.50 0.49 0.58 0.62 0.74 0.74 0.79
0.20 0.19 0.18 0.17 0.17 0.17 0.17 0.17 0.17 0.17 0.15 0.15 0.16 0.17 0.16 0.15 0.16 0.13 0.11 0.10 0.10 0.11 0.14 0.14 0.14 0.14 0.15 0.16 0.18 0.17 0.15 0.16 0.18 0.25 0.32 0.33 0.40 0.46 0.52 0.55 0.61 0.62 0.71
0.23 0.21 0.18 0.16 0.15 0.16 0.18 0.17 0.15 0.15 0.14 0.14 0.14 0.15 0.16 0.15 0.15 0.14 0.11 0.10 0.09 0.10 0.10 0.10 0.10 0.10 0.11 0.12 0.14 0.14 0.15 0.13 0.15 0.16 0.23 0.22 0.26 0.29 0.31 0.48 0.53 0.55 0.60